Location: Newark
(42.8334°N, 7.7197°W)
Time: 20:51:10
(UTC+00:00)

Hubble Space Telescope - Visible Passes

Search period start: 16 November 2019 00:00
Search period end: 26 November 2019 00:00
Orbit: 536 x 540 km, 28.5° (Epoch: 16 November)

Date Brightness Start Highest point End Pass type
(mag) Time Alt. Az. Time Alt. Az. Time Alt. Az.
21 Nov 3.4 19:23:35 10° S 19:24:04 11° S 19:24:04 11° S visible
22 Nov 3.4 19:12:44 10° SSW 19:13:49 11° S 19:14:06 11° S visible
23 Nov 3.4 19:02:03 10° SSW 19:03:05 11° S 19:04:07 10° SSE visible
24 Nov 3.5 18:51:34 10° SSW 18:52:20 10° S 18:53:07 10° S visible
